Location: Fort Worth, Tx
(32.7431°N, 97.3695°W)
Time: 16:45:43
(UTC-04:00)

Altair - Pass Details

Date: 10 October 2023
Orbit: 1501 x 1682 km, 47.2° (Epoch: 06 October)

Event Time Altitude Azimuth Distance (km) Brightness Sun altitude
Rises 11:01:14 0° 290° (WNW) 4,918 9.6 29.1°
Reaches altitude 10° 11:06:01 10° 272° (W) 3,938 9.3 30.0°
Maximum altitude 11:11:35 16° 237° (WSW) 3,447 9.3 31.0°
Drops below altitude 10° 11:17:10 10° 203° (SSW) 3,924 9.9 32.0°
Sets 11:21:59 0° 184° (S) 4,892 10.5 32.8°
